| time (UTC) | temp F | wind direction | speed MPH | gust MPH | rain 1hr in | rain 24hr in | rain mn in | humidity % | barometer mb |
| 20260510120007 | 51 | 0 | 0.0 | 0.0 | 0.00 | 0.73 | 0.00 | 99 | 1009.7 |
| 20260510114507 | 51 | 0 | 0.0 | 0.0 | 0.00 | 0.73 | 0.00 | 99 | 1009.8 |
| 20260510114007 | 51 | 0 | 0.0 | 0.0 | 0.00 | 0.73 | 0.00 | 99 | 1009.5 |
| 20260510113507 | 50 | 0 | 0.0 | 0.0 | 0.00 | 0.73 | 0.00 | 99 | 1009.4 |
| 20260510113007 | 50 | 0 | 0.0 | 0.0 | 0.00 | 0.73 | 0.00 | 99 | 1009.3 |
| 20260510111006 | 50 | 0 | 0.0 | 0.0 | 0.00 | 0.73 | 0.00 | 99 | 1009.0 |
| 20260510110507 | 50 | 0 | 0.0 | 0.0 | 0.00 | 0.73 | 0.00 | 99 | 1009.1 |
| 20260510110007 | 49 | 0 | 0.0 | 0.0 | 0.00 | 0.73 | 0.00 | 99 | 1009.0 |
| 20260510104506 | 49 | 0 | 0.0 | 0.0 | 0.00 | 0.73 | 0.00 | 99 | 1008.9 |
| 20260510104007 | 49 | 0 | 0.0 | 0.0 | 0.00 | 0.73 | 0.00 | 99 | 1009.2 |
| 20260510103507 | 49 | 0 | 0.0 | 0.0 | 0.00 | 0.73 | 0.00 | 99 | 1008.8 |
| 20260510103006 | 49 | 0 | 0.0 | 0.0 | 0.00 | 0.73 | 0.00 | 99 | 1008.8 |
| 20260510101507 | 49 | 0 | 0.0 | 0.0 | 0.00 | 0.73 | 0.00 | 99 | 1008.9 |
| 20260510094506 | 48 | 0 | 0.0 | 0.0 | 0.00 | 0.73 | 0.00 | 99 | 1008.8 |
| 20260510093507 | 48 | 0 | 0.0 | 0.0 | 0.00 | 0.73 | 0.00 | 99 | 1008.6 |
| 20260510093007 | 48 | 0 | 0.0 | 0.0 | 0.00 | 0.73 | 0.00 | 99 | 1008.6 |
| 20260510091007 | 48 | 0 | 0.0 | 0.0 | 0.00 | 0.73 | 0.00 | 99 | 1008.6 |
| 20260510090506 | 48 | 0 | 0.0 | 0.0 | 0.00 | 0.73 | 0.00 | 99 | 1008.6 |
| 20260510090006 | 48 | 0 | 0.0 | 0.0 | 0.00 | 0.73 | 0.00 | 99 | 1008.7 |
| 20260510084006 | 48 | 0 | 0.0 | 0.0 | 0.00 | 0.73 | 0.00 | 99 | 1008.6 |
| 20260510083506 | 48 | 0 | 0.0 | 0.0 | 0.00 | 0.73 | 0.00 | 99 | 1008.6 |
| 20260510081506 | 48 | 0 | 0.0 | 0.0 | 0.00 | 0.73 | 0.00 | 99 | 1008.2 |
| 20260510081006 | 48 | 0 | 0.0 | 0.0 | 0.00 | 0.73 | 0.00 | 99 | 1008.3 |
| 20260510080506 | 48 | 0 | 0.0 | 0.0 | 0.00 | 0.73 | 0.00 | 99 | 1008.5 |
| 20260510080006 | 48 | 0 | 0.0 | 0.0 | 0.00 | 0.73 | 0.00 | 99 | 1008.6 |
| 20260510074506 | 48 | 0 | 0.0 | 0.0 | 0.00 | 0.73 | 0.00 | 99 | 1008.4 |
| 20260510074006 | 48 | 0 | 0.0 | 0.0 | 0.00 | 0.73 | 0.00 | 99 | 1008.4 |
| 20260510073506 | 48 | 0 | 0.0 | 0.0 | 0.00 | 0.73 | 0.00 | 99 | 1008.5 |
| 20260510073005 | 48 | 0 | 0.0 | 0.0 | 0.00 | 0.73 | 0.00 | 99 | 1008.5 |
| 20260510071506 | 47 | 0 | 0.0 | 0.0 | 0.00 | 0.73 | 0.00 | 99 | 1008.2 |
| 20260510071006 | 47 | 0 | 0.0 | 0.0 | 0.00 | 0.73 | 0.00 | 99 | 1008.2 |
| 20260510070006 | 47 | 0 | 0.0 | 0.0 | 0.00 | 0.73 | 0.00 | 99 | 1008.3 |
| 20260510064506 | 47 | 0 | 0.0 | 0.0 | 0.00 | 0.73 | 0.00 | 99 | 1008.5 |
| 20260510063505 | 47 | 0 | 0.0 | 0.0 | 0.00 | 0.73 | 0.00 | 99 | 1008.6 |
| 20260510063007 | 47 | 0 | 0.0 | 0.0 | 0.00 | 0.73 | 0.00 | 99 | 1008.7 |
| 20260510061506 | 47 | 0 | 0.0 | 0.0 | 0.00 | 0.73 | 0.00 | 99 | 1008.9 |
| 20260510061005 | 47 | 0 | 0.0 | 0.0 | 0.00 | 0.73 | 0.00 | 99 | 1009.0 |
| 20260510060506 | 47 | 0 | 0.0 | 0.0 | 0.00 | 0.73 | 0.00 | 99 | 1009.0 |
| 20260510060006 | 47 | 0 | 0.0 | 0.0 | 0.00 | 0.73 | 0.00 | 99 | 1009.1 |
| 20260510053505 | 47 | 0 | 0.0 | 0.0 | 0.00 | 0.73 | 0.00 | 99 | 1009.2 |
| 20260510053006 | 47 | 0 | 0.0 | 0.0 | 0.00 | 0.73 | 0.00 | 99 | 1009.2 |
| 20260510051006 | 46 | 0 | 0.0 | 0.0 | 0.00 | 0.73 | 0.00 | 99 | 1009.5 |
| 20260510050505 | 46 | 0 | 0.0 | 0.0 | 0.00 | 0.73 | 0.00 | 99 | 1009.5 |
| 20260510050005 | 46 | 0 | 0.0 | 0.0 | 0.00 | 0.73 | 0.00 | 99 | 1009.4 |
| 20260510044505 | 46 | 0 | 0.0 | 0.0 | 0.00 | 0.73 | 0.00 | 99 | 1009.2 |
| 20260510043505 | 46 | 0 | 0.0 | 0.0 | 0.00 | 0.73 | 0.00 | 99 | 1009.4 |
| 20260510043005 | 46 | 0 | 0.0 | 0.0 | 0.00 | 0.73 | 0.00 | 99 | 1009.4 |
| 20260510041005 | 46 | 0 | 0.0 | 0.0 | 0.00 | 0.73 | 0.00 | 99 | 1009.5 |
| 20260510040505 | 46 | 0 | 0.0 | 0.0 | 0.00 | 0.73 | 0.00 | 99 | 1009.7 |
| 20260510040005 | 46 | 0 | 0.0 | 0.0 | 0.00 | 0.73 | 0.00 | 99 | 1009.6 |
| 20260510034504 | 46 | 0 | 0.0 | 0.0 | 0.00 | 0.73 | 0.64 | 99 | 1010.0 |
| 20260510033505 | 46 | 0 | 0.0 | 0.0 | 0.08 | 0.73 | 0.64 | 99 | 1010.0 |
| 20260510031005 | 46 | 0 | 0.0 | 0.0 | 0.08 | 0.73 | 0.64 | 99 | 1010.2 |
| 20260510030505 | 46 | 0 | 0.0 | 0.0 | 0.08 | 0.73 | 0.64 | 99 | 1010.2 |
| 20260510030004 | 46 | 0 | 0.0 | 0.0 | 0.09 | 0.73 | 0.64 | 99 | 1010.3 |
| 20260510024505 | 46 | 0 | 0.0 | 0.0 | 0.11 | 0.73 | 0.64 | 99 | 1010.3 |
| 20260510024004 | 46 | 0 | 0.0 | 0.0 | 0.11 | 0.73 | 0.64 | 99 | 1010.3 |
| 20260510023004 | 46 | 0 | 0.0 | 0.0 | 0.04 | 0.65 | 0.56 | 99 | 1010.3 |
| 20260510021505 | 46 | 0 | 0.0 | 0.0 | 0.05 | 0.65 | 0.56 | 99 | 1010.3 |
| 20260510021005 | 46 | 0 | 0.0 | 0.0 | 0.05 | 0.65 | 0.56 | 99 | 1010.3 |
| 20260510020504 | 46 | 0 | 0.0 | 0.0 | 0.05 | 0.65 | 0.56 | 99 | 1010.2 |
| 20260510014505 | 46 | 0 | 0.0 | 0.0 | 0.02 | 0.62 | 0.53 | 99 | 1010.3 |
| 20260510013504 | 45 | 0 | 0.0 | 0.0 | 0.03 | 0.61 | 0.52 | 99 | 1010.4 |
| 20260510013005 | 45 | 0 | 0.0 | 0.0 | 0.03 | 0.61 | 0.52 | 99 | 1010.4 |
| 20260510011504 | 45 | 0 | 0.0 | 0.0 | 0.01 | 0.60 | 0.51 | 99 | 1010.2 |
| 20260510011004 | 45 | 0 | 0.0 | 0.0 | 0.03 | 0.60 | 0.51 | 99 | 1010.2 |
| 20260510010505 | 45 | 0 | 0.0 | 0.0 | 0.03 | 0.60 | 0.51 | 99 | 1010.1 |
| 20260510010004 | 45 | 0 | 0.0 | 0.0 | 0.09 | 0.60 | 0.51 | 99 | 1010.0 |
| 20260510004504 | 45 | 0 | 0.0 | 0.0 | 0.09 | 0.60 | 0.51 | 99 | 1009.8 |
| 20260510004004 | 45 | 0 | 0.0 | 0.0 | 0.09 | 0.60 | 0.51 | 99 | 1009.9 |
| 20260510003504 | 45 | 0 | 0.0 | 0.0 | 0.07 | 0.58 | 0.49 | 99 | 1010.0 |
| 20260510003004 | 45 | 0 | 0.0 | 0.0 | 0.08 | 0.58 | 0.49 | 99 | 1010.0 |
| 20260510001504 | 45 | 0 | 0.0 | 0.0 | 0.12 | 0.58 | 0.51 | 99 | 1009.9 |
| 20260510001004 | 45 | 0 | 0.0 | 0.0 | 0.10 | 0.55 | 0.48 | 99 | 1009.9 |
| 20260510000504 | 45 | 0 | 0.0 | 0.0 | 0.10 | 0.55 | 0.48 | 99 | 1009.9 |
| 20260510000004 | 45 | 0 | 0.0 | 0.0 | 0.05 | 0.50 | 0.42 | 99 | 1009.9 |
| 20260509234503 | 45 | 0 | 0.0 | 0.0 | 0.05 | 0.50 | 0.42 | 99 | 1010.0 |
| 20260509234004 | 45 | 0 | 0.0 | 0.0 | 0.06 | 0.50 | 0.42 | 99 | 1010.0 |
| 20260509233504 | 45 | 0 | 0.0 | 0.0 | 0.06 | 0.50 | 0.42 | 99 | 1010.0 |
| 20260509233004 | 45 | 0 | 0.0 | 0.0 | 0.05 | 0.49 | 0.41 | 99 | 1010.0 |
| 20260509231504 | 45 | 0 | 0.0 | 0.0 | 0.05 | 0.46 | 0.39 | 99 | 1010.0 |
| 20260509231005 | 45 | 0 | 0.0 | 0.0 | 0.05 | 0.46 | 0.38 | 99 | 1010.1 |
| 20260509230510 | 45 | 0 | 0.0 | 0.0 | 0.06 | 0.45 | 0.38 | 99 | 1010.2 |
| 20260509230010 | 45 | 0 | 0.0 | 0.0 | 0.07 | 0.44 | 0.37 | 99 | 1010.3 |
| 20260509224509 | 45 | 0 | 0.0 | 0.0 | 0.07 | 0.44 | 0.37 | 99 | 1010.1 |
| 20260509223510 | 45 | 0 | 0.0 | 0.0 | 0.06 | 0.43 | 0.36 | 99 | 1010.0 |
| 20260509220510 | 45 | 0 | 0.0 | 0.0 | 0.04 | 0.38 | 0.32 | 99 | 1010.3 |
| 20260509214510 | 45 | 0 | 0.0 | 0.0 | 0.01 | 0.36 | 0.30 | 99 | 1010.3 |
| 20260509214009 | 45 | 0 | 0.0 | 0.0 | 0.01 | 0.36 | 0.30 | 99 | 1010.4 |
| 20260509213510 | 45 | 0 | 0.0 | 0.0 | 0.01 | 0.36 | 0.30 | 99 | 1010.6 |
| 20260509213009 | 45 | 0 | 0.0 | 0.0 | 0.01 | 0.36 | 0.30 | 99 | 1010.7 |
| 20260509211509 | 45 | 0 | 0.0 | 0.0 | 0.03 | 0.35 | 0.29 | 100 | 1011.0 |
| 20260509211009 | 45 | 0 | 0.0 | 0.0 | 0.03 | 0.35 | 0.29 | 99 | 1011.1 |
| 20260509210509 | 45 | 0 | 0.0 | 0.0 | 0.03 | 0.34 | 0.29 | 99 | 1011.0 |
| 20260509210010 | 45 | 0 | 0.0 | 0.0 | 0.04 | 0.34 | 0.29 | 99 | 1010.9 |
| 20260509204010 | 46 | 0 | 0.0 | 0.0 | 0.03 | 0.34 | 0.29 | 99 | 1011.0 |
| 20260509203509 | 46 | 0 | 0.0 | 0.0 | 0.03 | 0.34 | 0.29 | 99 | 1011.0 |
| 20260509203010 | 46 | 0 | 0.0 | 0.0 | 0.04 | 0.34 | 0.29 | 99 | 1010.8 |
| 20260509201509 | 46 | 0 | 0.0 | 0.0 | 0.04 | 0.31 | 0.26 | 99 | 1010.9 |
| 20260509201010 | 46 | 0 | 0.0 | 0.0 | 0.05 | 0.31 | 0.26 | 99 | 1011.0 |
| 20260509200509 | 46 | 0 | 0.0 | 0.0 | 0.05 | 0.31 | 0.26 | 99 | 1010.6 |
| 20260509200009 | 46 | 0 | 0.0 | 0.0 | 0.04 | 0.30 | 0.25 | 99 | 1010.3 |
| 20260509194509 | 45 | 0 | 0.0 | 0.0 | 0.04 | 0.30 | 0.25 | 99 | 1011.1 |
| 20260509194009 | 45 | 0 | 0.0 | 0.0 | 0.05 | 0.30 | 0.25 | 99 | 1011.2 |
| 20260509193509 | 45 | 0 | 0.0 | 0.0 | 0.04 | 0.30 | 0.25 | 99 | 1011.6 |
| 20260509191509 | 45 | 0 | 0.0 | 0.0 | 0.06 | 0.26 | 0.22 | 99 | 1011.7 |
| 20260509190509 | 45 | 0 | 0.0 | 0.0 | 0.07 | 0.26 | 0.21 | 100 | 1011.7 |
| 20260509190009 | 45 | 0 | 0.0 | 0.0 | 0.09 | 0.26 | 0.22 | 100 | 1011.7 |
| 20260509184508 | 45 | 0 | 0.0 | 0.0 | 0.10 | 0.25 | 0.21 | 100 | 1011.7 |
| 20260509184009 | 45 | 0 | 0.0 | 0.0 | 0.10 | 0.25 | 0.21 | 99 | 1011.8 |
| 20260509183509 | 45 | 0 | 0.0 | 0.0 | 0.11 | 0.24 | 0.21 | 99 | 1011.9 |
| 20260509183009 | 45 | 0 | 0.0 | 0.0 | 0.11 | 0.24 | 0.20 | 100 | 1012.1 |
| 20260509181509 | 46 | 0 | 0.0 | 0.0 | 0.07 | 0.18 | 0.15 | 100 | 1012.2 |
| 20260509181010 | 46 | 0 | 0.0 | 0.0 | 0.07 | 0.17 | 0.15 | 100 | 1012.0 |
| 20260509180509 | 46 | 0 | 0.0 | 0.0 | 0.08 | 0.17 | 0.15 | 99 | 1012.0 |
| 20260509180008 | 46 | 0 | 0.0 | 0.0 | 0.07 | 0.15 | 0.13 | 99 | 1012.1 |
| 20260509174509 | 46 | 0 | 0.0 | 0.0 | 0.07 | 0.13 | 0.12 | 98 | 1012.2 |
| 20260509174009 | 46 | 0 | 0.0 | 0.0 | 0.07 | 0.12 | 0.11 | 97 | 1012.2 |
| 20260509173509 | 46 | 0 | 0.0 | 0.0 | 0.07 | 0.11 | 0.10 | 97 | 1012.1 |
| 20260509171509 | 46 | 0 | 0.0 | 0.0 | 0.07 | 0.09 | 0.08 | 94 | 1011.9 |
| 20260509170509 | 47 | 0 | 0.0 | 0.0 | 0.06 | 0.07 | 0.07 | 93 | 1012.1 |
| 20260509164508 | 47 | 0 | 0.0 | 0.0 | 0.05 | 0.05 | 0.05 | 90 | 1012.1 |
| 20260509164008 | 47 | 0 | 0.0 | 0.0 | 0.04 | 0.04 | 0.04 | 88 | 1012.1 |
| 20260509163509 | 48 | 0 | 0.0 | 0.0 | 0.03 | 0.03 | 0.03 | 86 | 1012.1 |
| 20260509163008 | 48 | 0 | 0.0 | 0.0 | 0.02 | 0.02 | 0.02 | 85 | 1012.2 |
| 20260509161508 | 49 | 0 | 0.0 | 0.0 | 0.01 | 0.01 | 0.01 | 81 | 1012.3 |
| 20260509161008 | 49 | 0 | 0.0 | 0.0 | 0.01 | 0.01 | 0.01 | 78 | 1012.3 |
| 20260509160509 | 50 | 0 | 0.0 | 0.0 | 0.01 | 0.01 | 0.01 | 75 | 1012.4 |
| 20260509160008 | 50 | 0 | 0.0 | 0.0 | 0.01 | 0.01 | 0.01 | 73 | 1012.4 |
| 20260509154008 | 49 | 0 | 0.0 | 0.0 | 0.00 | 0.00 | 0.00 | 71 | 1012.5 |
| 20260509153508 | 50 | 0 | 0.0 | 0.0 | 0.00 | 0.00 | 0.00 | 69 | 1012.5 |
| 20260509153008 | 50 | 0 | 0.0 | 0.0 | 0.00 | 0.00 | 0.00 | 69 | 1012.5 |
| 20260509151508 | 51 | 0 | 0.0 | 0.0 | 0.00 | 0.00 | 0.00 | 62 | 1012.3 |
| 20260509150508 | 51 | 0 | 0.0 | 0.0 | 0.00 | 0.00 | 0.00 | 60 | 1012.2 |
| 20260509150007 | 52 | 0 | 0.0 | 0.0 | 0.00 | 0.00 | 0.00 | 59 | 1012.1 |
| 20260509144507 | 54 | 0 | 0.0 | 0.0 | 0.00 | 0.00 | 0.00 | 55 | 1011.8 |
| 20260509144008 | 54 | 0 | 0.0 | 0.0 | 0.00 | 0.00 | 0.00 | 53 | 1011.7 |
| 20260509143508 | 55 | 0 | 0.0 | 0.0 | 0.00 | 0.00 | 0.00 | 52 | 1011.6 |
| 20260509143007 | 56 | 0 | 0.0 | 0.0 | 0.00 | 0.00 | 0.00 | 50 | 1011.6 |
| 20260509141008 | 55 | 0 | 0.0 | 0.0 | 0.00 | 0.00 | 0.00 | 51 | 1011.5 |
| 20260509140008 | 55 | 0 | 0.0 | 0.0 | 0.00 | 0.00 | 0.00 | 52 | 1011.6 |
| 20260509134508 | 54 | 0 | 0.0 | 0.0 | 0.00 | 0.00 | 0.00 | 52 | 1011.6 |
| 20260509133508 | 54 | 0 | 0.0 | 0.0 | 0.00 | 0.00 | 0.00 | 51 | 1011.6 |
| 20260509133008 | 54 | 0 | 0.0 | 0.0 | 0.00 | 0.00 | 0.00 | 50 | 1011.7 |
| 20260509131507 | 54 | 0 | 0.0 | 0.0 | 0.00 | 0.00 | 0.00 | 55 | 1011.8 |
| 20260509131008 | 54 | 0 | 0.0 | 0.0 | 0.00 | 0.00 | 0.00 | 53 | 1011.9 |
| 20260509130508 | 54 | 0 | 0.0 | 0.0 | 0.00 | 0.00 | 0.00 | 57 | 1011.9 |
| 20260509130008 | 54 | 0 | 0.0 | 0.0 | 0.00 | 0.00 | 0.00 | 57 | 1011.9 |
| 20260509124508 | 52 | 0 | 0.0 | 0.0 | 0.00 | 0.00 | 0.00 | 60 | 1012.0 |
| 20260509124007 | 52 | 0 | 0.0 | 0.0 | 0.00 | 0.00 | 0.00 | 62 | 1012.0 |
| 20260509123507 | 51 | 0 | 0.0 | 0.0 | 0.00 | 0.00 | 0.00 | 62 | 1012.1 |
| 20260509123008 | 51 | 0 | 0.0 | 0.0 | 0.00 | 0.00 | 0.00 | 62 | 1012.0 |
| 20260509121507 | 48 | 0 | 0.0 | 0.0 | 0.00 | 0.00 | 0.00 | 66 | 1012.0 |
| 20260509121008 | 48 | 0 | 0.0 | 0.0 | 0.00 | 0.00 | 0.00 | 68 | 1012.1 |
| 20260509120507 | 47 | 0 | 0.0 | 0.0 | 0.00 | 0.00 | 0.00 | 69 | 1012.1 |